SCP
0 0 0 0 0 0 0 -0 -0 -0 -0 -0 0 0 0 0 0 0 0 0 0 0 0 0 0 0 0 0 0 0 0 0 0 -0 -0 -0 -0 0 0 0 0 0 0
0 0 0 0 0 0 0 0 -0 -0 -0 -0 0 0 0 0 0 0 0 0 0 0 0 0 0 0 0 0 0 0 0 0 0 0 -0 -0 -0 -0 0 0 0 0 0
0 0 0 0 0 0 0 0 0 0 0 0 0 0 0 0 -0 -0 0 0 0 0 0 0 0 0 0 0 0 0 0 0 0 -0 0 0 0 -0 -0 -0 0 0 0
0 0 0 0 0 0 0 0 0 0 0 0 0 0 0 -0 -0 -0 -0 0 0 0 0 0 0 0 0 0 0 0 0 0 0 0 -0 0 0 0 0 0 0 0 0
0 0 0 0 0 0 0 0 0 0 0 0 0 0 0 -0 -0 -0 -0 -0 0 0 0 0 0 0 0 0 0 0 0 0 0 -0 -0 0 0 0 0 -0 -0 -0 0
0 0 0 0 0 0 0 0 0 0 0 0 0 0 0 -0 -0 -0 -0 0 0 0 0 0 0 0 0 0 0 0 0 0 -0 -0 -0 -0 -0 -0 0 0 -0 -0 -0
0 0 0 0 0 0 0 0 0 0 0 0 0 0 0 -0 -0 -0 -0 0 0 0 0 0 0 0 0 0 0 0 0 0 -0 -0 -0 -0 -0 -0 -0 -0 0 0 -0
0 0 0 0 0 0 0 0 0 0 0 0 0 0 0 -0 -0 -0 -0 -0 0 0 0 0 0 0 0 0 0 0 0 0 0 0 0 0 -0 -0 -0 -0 -0 -0 -0
0 0 0 0 0 0 0 0 0 0 0 0 0 0 0 -0 -0 -0 -0 -0 0 0 0 0 0 0 0 0 0 0 0 0 0 0 0 -0 -0 -0 -0 -0 -0 -0 -0
0 0 0 0 0 0 0 0 0 0 0 0 0 0 0 -0 -0 -0 -0 -0 0 0 0 0 0 0 0 0 0 0 0 0 0 0 0 0 0 0 -0 -0 -0 -0 -0
0 0 0 0 0 0 0 0 0 0 0 0 0 0 0 -0 -0 0 -0 -0 -0 0 0 0 0 0 0 0 0 0 0 0 0 0 0 0 0 0 0 0 -0 -0 -0
0 0 0 0 0 0 0 0 0 0 0 0 0 0 0 0 -0 0 0 0 0 0 0 0 0 0 0 0 0 0 0 0 0 0 0 0 0 0 0 0 0 -0 -0
0 0 0 0 0 0 0 0 0 0 0 0 0 0 0 -0 -0 0 0 -0 0 0 0 0 0 0 0 0 0 0 0 0 0 0 0 0 0 0 0 0 0 -0 -0
0 0 0 0 0 0 0 0 0 0 0 0 0 0 0 -0 -0 -0 0 -0 0 0 0 0 0 0 0 0 0 0 0 0 0 0 0 0 0 0 0 0 0 0 0
0 0 0 0 0 0 0 0 0 0 0 0 0 0 0 0 -0 0 0 0 0 0 0 0 0 0 0 0 0 0 0 0 0 0 0 0 0 0 0 0 0 0 0
0 0 0 0 0 0 0 0 0 0 0 0 0 0 0 0 0 0 0 0 0 0 -0 0 0 0 0 0 0 0 0 0 0 0 0 0 0 0 0 0 0 0 0
0 0 0 0 0 0 0 0 0 0 0 0 0 0 0 0 0 0 0 0 0 0 -0 0 0 0 0 0 0 0 0 0 0 0 0 0 0 0 0 0 0 0 0
0 0 0 0 0 0 0 0 0 0 0 0 0 0 0 0 0 0 0 0 0 -0 -0 0 0 0 0 0 0 0 0 0 0 0 0 0 0 0 0 0 0 0 0
0 0 0 0 0 0 0 0 0 0 0 0 0 0 0 0 0 0 0 -0 0 -0 -0 -0 0 0 0 0 0 0 0 0 0 0 0 0 0 0 0 0 0 0 0
0 0 0 0 0 0 0 0 0 0 0 0 0 0 0 0 0 0 0 -0 -0 -0 -0 -0 0 0 0 0 0 0 0 0 0 0 0 0 0 0 0 0 0 0 0
0 0 0 0 0 0 0 0 0 0 0 0 0 0 0 0 0 0 0 0 -0 0 0 -0 -0 0 0 0 0 0 0 0 0 0 0 0 0 0 0 0 0 0 0
0 0 0 0 0 0 0 0 0 0 0 0 0 0 0 0 0 0 0 0 -0 0 0 0 0 0 0 0 0 0 0 0 0 0 0 0 0 0 0 0 0 0 0
0 0 0 0 0 0 0 0 0 0 0 0 0 0 0 0 0 0 0 0 0 0 0 0 0 0 0 0 0 0 0 0 0 0 0 0 0 0 0 0 0 0 0
0 0 0 0 0 0 0 0 0 0 0 0 0 0 0 0 0 0 0 0 0 0 0 0 0 0 0 0 0 0 0 0 0 0 0 0 0 0 0 0 0 0 0
0 0 0 0 0 0 0 0 0 0 0 0 0 0 0 0 0 0 0 0 0 0 0 0 0 0 0 0 0 0 0 0 0 0 0 0 0 0 0 0 0 0 0
0 0 0 0 0 0 0 0 0 0 0 0 0 0 0 0 0 0 0 0 0 0 0 0 0 0 0 0 0 0 0 0 0 0 0 0 0 0 0 0 0 0 0
Wind_Speed_500mb
19 16 15 14 17 18 18 23 27 32 35 36 36 36 37 39 44 48 51 51 50 51 52 52 51 48 52 53 56 52 40 31 41 39 43 47 53 58 66 72 73 84 95
23 19 17 15 16 15 15 20 26 30 34 35 34 34 37 41 46 51 54 53 55 55 55 54 54 50 53 51 52 47 33 26 33 41 40 44 47 53 56 64 77 81 80
29 24 22 21 18 16 15 18 23 28 32 32 32 35 37 43 48 50 53 52 55 54 55 56 54 54 57 52 48 42 30 30 32 36 40 42 43 43 53 63 74 80 85
35 30 26 26 22 19 17 19 21 26 30 31 33 35 37 43 47 47 52 52 52 52 53 54 53 53 54 54 48 41 30 27 30 37 40 45 47 48 52 65 71 72 75
40 35 31 30 27 22 19 20 22 25 28 31 32 33 35 42 46 45 49 51 49 49 51 53 52 49 49 47 47 42 32 29 30 35 38 42 48 50 50 58 62 63 66
44 39 36 35 33 27 23 22 24 26 29 30 30 32 32 40 40 41 45 46 47 47 49 51 50 49 47 42 42 39 35 33 32 33 35 39 38 41 37 32 31 46 54
50 45 42 41 38 34 28 26 26 27 29 30 29 28 30 36 35 36 41 42 44 44 46 48 49 48 46 41 36 36 36 35 33 29 30 31 32 34 28 28 31 37 41
59 53 49 46 44 39 34 31 29 28 29 30 28 25 27 31 31 32 36 37 38 41 42 45 46 47 47 42 39 37 38 38 39 34 30 28 27 29 27 27 28 27 30
67 61 56 53 49 45 40 36 33 30 30 30 29 24 24 28 27 27 31 31 33 37 39 41 43 44 43 39 39 42 41 40 37 34 32 29 27 27 27 24 19 15 23
74 67 60 58 55 50 44 40 37 34 30 30 28 23 21 26 24 23 27 26 27 30 35 38 41 40 37 38 40 42 44 46 40 35 32 31 30 29 27 27 29 23 22
75 71 66 63 60 54 49 45 41 37 33 29 27 23 20 22 23 20 24 24 25 26 30 35 38 36 33 34 36 42 46 41 40 39 40 41 40 39 40 39 36 32 29
82 76 71 69 67 62 56 51 47 41 36 31 27 24 20 19 20 18 23 24 24 23 27 30 33 31 29 28 32 37 36 33 30 31 35 39 40 41 41 39 38 35 33
88 83 77 74 72 68 64 58 53 47 41 34 28 24 20 19 17 14 18 22 22 21 24 26 27 27 25 24 27 27 24 24 24 27 32 36 39 38 37 37 37 35 31
94 89 83 81 79 75 70 64 59 52 46 39 31 26 21 19 18 14 13 20 19 20 22 22 22 21 21 22 21 19 19 21 23 27 31 34 33 31 30 33 33 29 27
99 93 89 86 84 82 76 71 62 53 43 36 29 24 20 18 18 16 12 17 18 18 19 18 17 18 18 19 19 21 22 22 20 22 23 23 22 23 25 27 27 27 27
106 101 97 93 90 87 81 76 68 56 48 43 39 32 27 24 21 18 15 15 18 17 18 17 13 14 13 16 18 18 18 18 19 21 20 17 16 18 19 20 21 22 23
111 105 101 97 95 95 90 84 78 72 65 57 48 42 35 29 27 23 21 17 19 18 18 13 12 11 12 14 15 15 14 15 17 19 20 18 19 19 19 20 20 21 21
113 108 105 100 99 99 96 90 84 79 75 67 56 50 44 39 34 29 27 23 20 19 20 15 10 10 10 12 13 13 12 13 16 15 17 18 19 20 21 21 22 22 23
116 116 110 103 102 101 99 95 90 86 77 68 63 60 53 47 41 36 33 29 26 25 21 19 15 12 11 10 11 12 12 12 11 10 11 13 14 16 18 19 20 21 23
111 118 114 110 109 107 105 101 96 91 85 77 71 66 61 57 53 45 39 36 31 32 29 24 19 15 12 10 9 9 10 10 8 9 10 11 12 12 14 16 18 20 20
108 120 121 116 114 110 107 106 101 98 93 85 75 67 62 58 50 43 39 39 35 32 31 29 24 20 16 13 9 7 6 6 6 7 7 8 9 10 11 13 15 16 17
104 117 127 126 119 115 111 109 107 103 97 90 81 73 69 64 57 52 48 45 41 38 35 31 27 24 20 17 13 10 7 5 3 1 2 5 8 10 12 12 14 16 17
100 112 124 129 126 118 114 112 110 108 103 96 88 82 81 74 68 64 58 53 49 46 42 39 35 31 26 22 18 15 12 9 8 7 5 7 10 12 14 16 16 16 17
100 107 118 130 131 126 121 115 111 112 108 104 98 92 88 81 76 69 63 59 58 52 47 43 38 35 31 28 24 21 18 15 14 13 13 13 14 14 15 16 17 18 18
100 106 113 125 134 132 126 119 114 114 113 112 106 100 94 88 81 76 70 66 64 60 55 50 45 41 37 34 31 27 23 20 18 18 17 17 18 18 18 19 20 21 21
102 104 110 118 127 132 132 127 120 117 118 117 112 106 101 96 86 81 76 73 69 66 60 56 51 47 42 39 36 31 28 25 24 23 21 21 20 21 21 22 22 23 24
Wind_Direction_500mb
175 156 137 127 114 97 85 72 65 60 56 50 46 46 49 48 48 48 44 39 39 39 37 35 31 26 28 26 26 23 24 67 75 67 64 59 55 53 61 73 72 61 60
180 168 149 143 129 114 98 82 73 66 62 55 51 52 55 55 51 50 47 41 40 37 37 38 35 31 34 32 31 31 36 54 72 64 53 50 54 61 65 68 69 81 86
186 176 165 157 148 136 116 92 82 75 71 65 60 59 60 61 58 55 54 49 46 40 38 38 36 34 36 34 35 40 43 59 59 57 56 52 57 60 67 67 68 68 69
190 181 175 166 160 152 134 108 95 86 80 74 69 66 65 66 63 59 58 53 49 44 41 41 38 35 35 35 38 44 47 52 54 56 49 57 60 57 61 66 65 63 63
195 186 181 173 167 162 146 126 112 99 90 83 77 73 69 70 64 62 60 55 51 48 45 44 42 37 37 34 34 45 53 51 53 51 60 58 63 55 63 67 71 73 70
199 193 187 182 173 167 158 140 125 113 102 93 87 81 75 72 67 64 61 57 54 51 48 46 46 45 40 38 39 44 55 53 50 58 61 55 51 48 56 57 67 72 66
200 198 193 187 179 172 166 153 139 127 115 105 94 87 83 78 73 66 63 58 55 52 50 48 46 47 46 40 43 45 50 58 58 52 51 51 41 39 53 60 60 58 61
199 199 196 191 185 179 172 163 151 140 126 114 104 94 88 84 78 72 66 59 57 55 51 51 47 46 47 43 46 49 52 55 54 51 51 47 44 47 59 59 52 51 46
200 200 197 194 190 186 178 170 161 150 139 126 115 104 95 90 84 77 71 61 57 58 55 55 52 50 49 51 51 53 53 53 49 48 50 54 53 53 47 37 36 59 48
202 202 198 195 192 190 183 177 168 161 152 135 124 116 103 95 91 83 77 67 62 59 59 58 57 53 50 52 55 58 58 56 54 54 55 55 52 50 48 46 42 48 45
202 202 200 197 193 192 188 185 177 171 164 148 139 131 117 102 96 91 86 76 66 59 59 59 58 55 52 52 55 58 59 57 58 59 61 63 62 58 55 54 56 57 49
203 201 200 198 194 193 192 190 185 181 175 163 156 145 134 118 105 95 90 83 72 62 60 60 60 56 54 56 57 58 59 59 60 61 63 62 59 58 55 54 53 51 50
203 202 201 199 196 196 196 195 191 188 186 177 170 161 153 138 123 110 99 93 82 73 67 64 62 59 56 56 62 61 60 58 60 62 63 62 57 53 53 53 51 48 47
204 202 202 200 198 198 198 200 198 194 190 187 182 174 169 159 148 137 123 106 93 83 72 68 65 62 62 59 61 66 64 60 51 48 50 50 52 51 50 53 53 49 50
205 204 203 203 202 200 201 202 200 199 197 193 188 186 183 176 163 153 150 126 112 98 88 80 72 65 62 65 62 60 56 54 54 55 51 45 41 43 43 44 45 43 40
206 205 205 204 202 203 202 202 201 201 201 199 196 198 192 187 184 173 172 157 138 125 105 89 77 77 71 70 69 63 57 56 55 56 51 42 38 39 38 37 34 30 28
211 208 207 207 205 204 204 204 200 199 201 202 199 198 197 197 193 190 180 188 161 147 125 116 109 99 92 83 74 68 60 58 53 51 48 40 37 33 30 25 24 22 17
213 214 212 210 209 208 207 206 205 205 203 201 199 200 201 199 197 197 190 196 185 167 150 156 146 127 109 98 94 88 82 70 61 52 47 41 33 31 31 27 25 22 21
214 215 214 214 214 212 210 209 208 209 209 207 203 204 201 202 200 202 204 190 201 181 174 175 174 162 142 123 109 96 85 79 71 63 56 50 45 36 31 26 25 24 21
217 217 216 216 216 214 213 212 211 211 211 211 210 210 204 203 204 204 205 195 203 193 185 188 190 187 175 158 136 115 100 92 84 74 64 53 47 42 39 31 24 20 14
219 218 217 218 219 218 217 215 214 214 214 213 213 213 214 211 210 208 211 209 194 212 194 195 197 198 196 190 178 155 142 129 102 78 62 50 40 30 24 17 11 8 6
222 220 218 218 219 220 220 219 217 216 216 215 213 213 216 215 212 211 212 215 202 203 207 201 204 207 207 206 201 194 194 179 157 113 26 1 355 348 346 349 356 356 354
224 224 221 220 220 221 222 222 220 220 219 218 216 215 216 216 212 211 212 216 213 208 209 208 207 209 209 211 217 218 218 220 236 252 270 303 317 324 327 331 337 339 339
227 227 224 222 221 221 222 223 223 222 221 221 219 217 219 219 218 215 214 216 220 214 211 214 212 214 217 218 220 224 228 230 242 259 273 286 294 300 309 316 321 323 325
229 227 226 225 223 223 223 224 225 224 222 223 221 221 221 222 221 219 217 218 222 220 217 215 215 214 217 221 223 224 229 239 246 257 263 272 282 290 297 304 309 311 313
229 228 228 226 226 225 224 225 225 225 224 224 223 222 223 225 223 222 220 220 224 226 222 221 220 220 220 223 225 228 231 237 245 252 259 267 274 283 290 293 297 301 304
Wind_Speed_850mb
19 16 15 14 17 18 18 23 27 32 35 36 36 36 37 39 44 48 51 51 50 51 52 52 51 48 52 53 56 52 40 31 41 39 43 47 53 58 66 72 73 84 95
23 19 17 15 16 15 15 20 26 30 34 35 34 34 37 41 46 51 54 53 55 55 55 54 54 50 53 51 52 47 33 26 33 41 40 44 47 53 56 64 77 81 80
29 24 22 21 18 16 15 18 23 28 32 32 32 35 37 43 48 50 53 52 55 54 55 56 54 54 57 52 48 42 30 30 32 36 40 42 43 43 53 63 74 80 85
35 30 26 26 22 19 17 19 21 26 30 31 33 35 37 43 47 47 52 52 52 52 53 54 53 53 54 54 48 41 30 27 30 37 40 45 47 48 52 65 71 72 75
40 35 31 30 27 22 19 20 22 25 28 31 32 33 35 42 46 45 49 51 49 49 51 53 52 49 49 47 47 42 32 29 30 35 38 42 48 50 50 58 62 63 66
44 39 36 35 33 27 23 22 24 26 29 30 30 32 32 40 40 41 45 46 47 47 49 51 50 49 47 42 42 39 35 33 32 33 35 39 38 41 37 32 31 46 54
50 45 42 41 38 34 28 26 26 27 29 30 29 28 30 36 35 36 41 42 44 44 46 48 49 48 46 41 36 36 36 35 33 29 30 31 32 34 28 28 31 37 41
59 53 49 46 44 39 34 31 29 28 29 30 28 25 27 31 31 32 36 37 38 41 42 45 46 47 47 42 39 37 38 38 39 34 30 28 27 29 27 27 28 27 30
67 61 56 53 49 45 40 36 33 30 30 30 29 24 24 28 27 27 31 31 33 37 39 41 43 44 43 39 39 42 41 40 37 34 32 29 27 27 27 24 19 15 23
74 67 60 58 55 50 44 40 37 34 30 30 28 23 21 26 24 23 27 26 27 30 35 38 41 40 37 38 40 42 44 46 40 35 32 31 30 29 27 27 29 23 22
75 71 66 63 60 54 49 45 41 37 33 29 27 23 20 22 23 20 24 24 25 26 30 35 38 36 33 34 36 42 46 41 40 39 40 41 40 39 40 39 36 32 29
82 76 71 69 67 62 56 51 47 41 36 31 27 24 20 19 20 18 23 24 24 23 27 30 33 31 29 28 32 37 36 33 30 31 35 39 40 41 41 39 38 35 33
88 83 77 74 72 68 64 58 53 47 41 34 28 24 20 19 17 14 18 22 22 21 24 26 27 27 25 24 27 27 24 24 24 27 32 36 39 38 37 37 37 35 31
94 89 83 81 79 75 70 64 59 52 46 39 31 26 21 19 18 14 13 20 19 20 22 22 22 21 21 22 21 19 19 21 23 27 31 34 33 31 30 33 33 29 27
99 93 89 86 84 82 76 71 62 53 43 36 29 24 20 18 18 16 12 17 18 18 19 18 17 18 18 19 19 21 22 22 20 22 23 23 22 23 25 27 27 27 27
106 101 97 93 90 87 81 76 68 56 48 43 39 32 27 24 21 18 15 15 18 17 18 17 13 14 13 16 18 18 18 18 19 21 20 17 16 18 19 20 21 22 23
111 105 101 97 95 95 90 84 78 72 65 57 48 42 35 29 27 23 21 17 19 18 18 13 12 11 12 14 15 15 14 15 17 19 20 18 19 19 19 20 20 21 21
113 108 105 100 99 99 96 90 84 79 75 67 56 50 44 39 34 29 27 23 20 19 20 15 10 10 10 12 13 13 12 13 16 15 17 18 19 20 21 21 22 22 23
116 116 110 103 102 101 99 95 90 86 77 68 63 60 53 47 41 36 33 29 26 25 21 19 15 12 11 10 11 12 12 12 11 10 11 13 14 16 18 19 20 21 23
111 118 114 110 109 107 105 101 96 91 85 77 71 66 61 57 53 45 39 36 31 32 29 24 19 15 12 10 9 9 10 10 8 9 10 11 12 12 14 16 18 20 20
108 120 121 116 114 110 107 106 101 98 93 85 75 67 62 58 50 43 39 39 35 32 31 29 24 20 16 13 9 7 6 6 6 7 7 8 9 10 11 13 15 16 17
104 117 127 126 119 115 111 109 107 103 97 90 81 73 69 64 57 52 48 45 41 38 35 31 27 24 20 17 13 10 7 5 3 1 2 5 8 10 12 12 14 16 17
100 112 124 129 126 118 114 112 110 108 103 96 88 82 81 74 68 64 58 53 49 46 42 39 35 31 26 22 18 15 12 9 8 7 5 7 10 12 14 16 16 16 17
100 107 118 130 131 126 121 115 111 112 108 104 98 92 88 81 76 69 63 59 58 52 47 43 38 35 31 28 24 21 18 15 14 13 13 13 14 14 15 16 17 18 18
100 106 113 125 134 132 126 119 114 114 113 112 106 100 94 88 81 76 70 66 64 60 55 50 45 41 37 34 31 27 23 20 18 18 17 17 18 18 18 19 20 21 21
102 104 110 118 127 132 132 127 120 117 118 117 112 106 101 96 86 81 76 73 69 66 60 56 51 47 42 39 36 31 28 25 24 23 21 21 20 21 21 22 22 23 24
Wind_Direction_850mb
175 156 137 127 114 97 85 72 65 60 56 50 46 46 49 48 48 48 44 39 39 39 37 35 31 26 28 26 26 23 24 67 75 67 64 59 55 53 61 73 72 61 60
180 168 149 143 129 114 98 82 73 66 62 55 51 52 55 55 51 50 47 41 40 37 37 38 35 31 34 32 31 31 36 54 72 64 53 50 54 61 65 68 69 81 86
186 176 165 157 148 136 116 92 82 75 71 65 60 59 60 61 58 55 54 49 46 40 38 38 36 34 36 34 35 40 43 59 59 57 56 52 57 60 67 67 68 68 69
190 181 175 166 160 152 134 108 95 86 80 74 69 66 65 66 63 59 58 53 49 44 41 41 38 35 35 35 38 44 47 52 54 56 49 57 60 57 61 66 65 63 63
195 186 181 173 167 162 146 126 112 99 90 83 77 73 69 70 64 62 60 55 51 48 45 44 42 37 37 34 34 45 53 51 53 51 60 58 63 55 63 67 71 73 70
199 193 187 182 173 167 158 140 125 113 102 93 87 81 75 72 67 64 61 57 54 51 48 46 46 45 40 38 39 44 55 53 50 58 61 55 51 48 56 57 67 72 66
200 198 193 187 179 172 166 153 139 127 115 105 94 87 83 78 73 66 63 58 55 52 50 48 46 47 46 40 43 45 50 58 58 52 51 51 41 39 53 60 60 58 61
199 199 196 191 185 179 172 163 151 140 126 114 104 94 88 84 78 72 66 59 57 55 51 51 47 46 47 43 46 49 52 55 54 51 51 47 44 47 59 59 52 51 46
200 200 197 194 190 186 178 170 161 150 139 126 115 104 95 90 84 77 71 61 57 58 55 55 52 50 49 51 51 53 53 53 49 48 50 54 53 53 47 37 36 59 48
202 202 198 195 192 190 183 177 168 161 152 135 124 116 103 95 91 83 77 67 62 59 59 58 57 53 50 52 55 58 58 56 54 54 55 55 52 50 48 46 42 48 45
202 202 200 197 193 192 188 185 177 171 164 148 139 131 117 102 96 91 86 76 66 59 59 59 58 55 52 52 55 58 59 57 58 59 61 63 62 58 55 54 56 57 49
203 201 200 198 194 193 192 190 185 181 175 163 156 145 134 118 105 95 90 83 72 62 60 60 60 56 54 56 57 58 59 59 60 61 63 62 59 58 55 54 53 51 50
203 202 201 199 196 196 196 195 191 188 186 177 170 161 153 138 123 110 99 93 82 73 67 64 62 59 56 56 62 61 60 58 60 62 63 62 57 53 53 53 51 48 47
204 202 202 200 198 198 198 200 198 194 190 187 182 174 169 159 148 137 123 106 93 83 72 68 65 62 62 59 61 66 64 60 51 48 50 50 52 51 50 53 53 49 50
205 204 203 203 202 200 201 202 200 199 197 193 188 186 183 176 163 153 150 126 112 98 88 80 72 65 62 65 62 60 56 54 54 55 51 45 41 43 43 44 45 43 40
206 205 205 204 202 203 202 202 201 201 201 199 196 198 192 187 184 173 172 157 138 125 105 89 77 77 71 70 69 63 57 56 55 56 51 42 38 39 38 37 34 30 28
211 208 207 207 205 204 204 204 200 199 201 202 199 198 197 197 193 190 180 188 161 147 125 116 109 99 92 83 74 68 60 58 53 51 48 40 37 33 30 25 24 22 17
213 214 212 210 209 208 207 206 205 205 203 201 199 200 201 199 197 197 190 196 185 167 150 156 146 127 109 98 94 88 82 70 61 52 47 41 33 31 31 27 25 22 21
214 215 214 214 214 212 210 209 208 209 209 207 203 204 201 202 200 202 204 190 201 181 174 175 174 162 142 123 109 96 85 79 71 63 56 50 45 36 31 26 25 24 21
217 217 216 216 216 214 213 212 211 211 211 211 210 210 204 203 204 204 205 195 203 193 185 188 190 187 175 158 136 115 100 92 84 74 64 53 47 42 39 31 24 20 14
219 218 217 218 219 218 217 215 214 214 214 213 213 213 214 211 210 208 211 209 194 212 194 195 197 198 196 190 178 155 142 129 102 78 62 50 40 30 24 17 11 8 6
222 220 218 218 219 220 220 219 217 216 216 215 213 213 216 215 212 211 212 215 202 203 207 201 204 207 207 206 201 194 194 179 157 113 26 1 355 348 346 349 356 356 354
224 224 221 220 220 221 222 222 220 220 219 218 216 215 216 216 212 211 212 216 213 208 209 208 207 209 209 211 217 218 218 220 236 252 270 303 317 324 327 331 337 339 339
227 227 224 222 221 221 222 223 223 222 221 221 219 217 219 219 218 215 214 216 220 214 211 214 212 214 217 218 220 224 228 230 242 259 273 286 294 300 309 316 321 323 325
229 227 226 225 223 223 223 224 225 224 222 223 221 221 221 222 221 219 217 218 222 220 217 215 215 214 217 221 223 224 229 239 246 257 263 272 282 290 297 304 309 311 313
229 228 228 226 226 225 224 225 225 225 224 224 223 222 223 225 223 222 220 220 224 226 222 221 220 220 220 223 225 228 231 237 245 252 259 267 274 283 290 293 297 301 304